{"data":{"norad_id":58972,"epoch":"2026-09-20T21:57:45.024480Z","epoch_age_seconds":119791,"freshness":"FRESH","line1":"1 58972U 24031H   26263.91510445 -.00001177  00000+0 -23690-4 0  9990","line2":"2 58972  53.1579 107.7228 0001181  90.5895 269.5243 15.34402393146441","mean_motion":15.34402393,"eccentricity":0.0001181,"inclination_deg":53.1579,"raan_deg":107.7228,"arg_perigee_deg":90.5895,"mean_anomaly_deg":269.5243,"bstar":-2.369e-5,"rev_number":14644,"period_min":93.847611719672,"perigee_km":461.88822532366,"apogee_km":463.50403010843,"semimajor_km":6840.833127716,"source":"CELESTRAK","updated_at":"2026-09-21T09:00:34.019954Z"}}